sat.trackr.live / text

‹ back to catalog

STARLINK-32189

NORAD 60317 · 2024-133S

PAYLOAD ACTIVE UNKNOWN

§ Identity

Operator
Country
US
Launch date
2024-07-28
Launch site
AFWTR
Launch vehicle
Mass (kg)
RCS (m²)

Purposes: comms

External: N2YO · Heavens-Above · Gunter

§ Orbital elements

Epoch: 2026-09-21T22:25:11.258112Z

Period
93.85 min
Inclination
53.1603°
Eccentricity
0.0001221
Mean motion
15.34388053 rev/d
Perigee alt
461.9 km
Apogee alt
463.6 km
Semi-major
6,840.9 km
B*
3.7329e-5
RAAN
102.8713°
Arg perigee
83.2945°
Mean anomaly
276.8196°
Rev number
12,181

§ Raw data

STARLINK-321891 60317U 24133S   26264.93415808  .00000885  00000+0  37329-4 0  99962 60317  53.1603 102.8713 0001221  83.2945 276.8196 15.34388053121818

JSON: /api/v1/satellites/60317 · /tle

For live sub-satellite position, see the globe view (requires WebGL).

§ Visibility from observer

Set your observer location to see the next 7 days of passes ≥ 10°. The values pass through the URL so the page stays shareable.

No JS? Fill the form by hand. The geolocation button needs JavaScript.